This is the latest recevied weather packets stored in our database for station/object N8HON. If no packets are shown the sender has not sent any weather packets the latest 10 day(s).
| Time | Temp. | Humidity | Pressure | Rain* | Wind** | Luminosity | Snow |
|---|---|---|---|---|---|---|---|
| 1777603933 | 6.11° C | 88% | 1013.6 hPa | 1.78 mm | - | 0 W/m² | - |
| 1777603631 | 6.11° C | 85% | 1013.3 hPa | 1.78 mm | - | 0 W/m² | - |
| 1777603327 | 6.11° C | 83% | 1013.3 hPa | 0 mm | - | 0 W/m² | - |
| 1777603022 | 5.56° C | 84% | 1013.4 hPa | 0 mm | - | 0 W/m² | - |
| 1777602717 | 5.56° C | 85% | 1013.2 hPa | 0 mm | - | 0 W/m² | - |
| 1777602412 | 5.56° C | 85% | 1013 hPa | 0 mm | - | 0 W/m² | - |
| 1777602109 | 5.56° C | 83% | 1013.2 hPa | 0 mm | - | 0 W/m² | - |
| 1777601804 | 5.56° C | 83% | 1013.1 hPa | 0 mm | - | 0 W/m² | - |
| 1777601499 | 5.56° C | 84% | 1013.3 hPa | 0 mm | - | 0 W/m² | - |
| 1777601195 | 5.56° C | 84% | 1013 hPa | 0 mm | - | 0 W/m² | - |
| 1777600893 | 5.56° C | 84% | 1013.1 hPa | 0 mm | - | 0 W/m² | - |
| 1777600588 | 5.56° C | 85% | 1013 hPa | 0 mm | - | 0 W/m² | - |
| 1777600285 | 6.11° C | 85% | 1012.9 hPa | 0 mm | - | 0 W/m² | - |
| 1777599980 | 6.11° C | 85% | 1012.9 hPa | 0 mm | - | 0 W/m² | - |
| 1777599677 | 6.11° C | 85% | 1012.7 hPa | 0 mm | - | 0 W/m² | - |
| 1777599373 | 5.56° C | 87% | 1012.8 hPa | 0 mm | - | 0 W/m² | - |
| 1777599070 | 5.56° C | 87% | 1012.6 hPa | 0 mm | - | 0 W/m² | - |
| 1777598768 | 5.56° C | 87% | 1012.6 hPa | 0 mm | - | 0 W/m² | - |
| 1777598463 | 5.56° C | 88% | 1012.7 hPa | 0 mm | - | 0 W/m² | - |
| 1777598162 | 5.56° C | 87% | 1012.5 hPa | 0 mm | - | 0 W/m² | - |
| 1777597857 | 5.56° C | 87% | 1012.6 hPa | 0 mm | - | 0 W/m² | - |
| 1777597556 | 5.56° C | 87% | 1012.5 hPa | 0 mm | - | 0 W/m² | - |
| 1777597252 | 5.56° C | 88% | 1012.5 hPa | 0 mm | - | 0 W/m² | - |
| 1777596947 | 5.56° C | 89% | 1012.5 hPa | 0 mm | - | 0 W/m² | - |
| 1777596645 | 5.56° C | 89% | 1012.5 hPa | 0 mm | - | 0 W/m² | - |
* Rain latest hour (hover to see other rain measurements)
** Current wind speed in m/s (hover to see current wind gust speed)